Location: Unspecified
(0.0000°N, 0.0000°E)
Time: 12:06:37
(UTC+00:00)

SR - Pass Details

Date: 27 November 2019
Orbit: 573 x 882 km, 66.7° (Epoch: 10 December)

Event Time Altitude Azimuth Distance (km) Brightness Sun altitude
Rises 12:04:14 0° 229° (SW) 2,959 ? 68.5°
Reaches altitude 10° 12:07:02 10° 247° (WSW) 2,101 ? 68.3°
Maximum altitude 12:10:22 19° 292° (WNW) 1,647 ? 68.2°
Drops below altitude 10° 12:13:54 10° 336° (NNW) 2,237 ? 67.9°
Sets 12:17:02 0° 354° (N) 3,223 ? 67.7°
